OBJECT AS, 57206

Orbit data source: Space-Track

You're viewing an Uncataloged Satellite

Recently launched and/or uncataloged satellites may have evolving metadata. Metadata may include but not limited to: Owner, Maufacturer, Bus, Motor, and Mission.

OBJECT AS, 57206 is a satellite in SSO that was launched on Tue, 27 Jun 2023 UTC via a SOYUZ-2-1B launch vehicle from the Vostochny Cosmodrome (VOSTO). Unknown objects in Earth's orbit typically refer to objects detected orbiting the Earth but have not yet been identified or cataloged. These objects could be anything from previously untracked satellites, spent rocket stages, debris from satellite collisions, or even natural meteoroids temporarily captured by Earth's gravity.

Loading next visibility...
Identifier
57206, 2023-091AS
Orbit
SSO
Country
Flag of TBDTBD
Related business
None
Manufacturer
Unknown
Mission
Operational Amateur Science
Bus & Motor
Unknown
Mass
Unknown
Launch date (UTC)
2023-06-27 (3 years ago)
Launch vehicle
SOYUZ-2-1B
Launch site
Vostochny Cosmodrome (VOSTO)
Object type
Unknown
Shape & HBR
Box + 2 Pan, 0.2 m
Radar Cross Section
0.080 m², Medium (>0.1 m² and < 1m²)

Expand to show TLE details & history
Last TLE update: 21 hours ago

TLE from 21 hours ago
0 OBJECT AS
1 57206U 23091AS  26207.59047204  .00128210  00000-0  10398-2 0  9990
2 57206  97.5016 290.0658 0004871 215.4999 144.5940 15.70342511171565
Epoch: 2026-07-26T14:10Z
TLE epoch observation values (Epoch: 2026-07-26T14:10:16.784Z)
Latitude
0.00004°
Longitude
133.20965°
Altitude
363.748 km
Speed
7.69 km/s
True Right ascension
19h 20m 15s
True Declination
0° 00' 00"
Sunlit
Object was in full shadow at epoch
Visualization orbit readout
Latitude
Unknown
Longitude
Unknown
Altitude
Unknown
Speed
Unknown
Apparent Right ascension
Unknown
Apparent Declination
Unknown
Sunlit
N/A
Visualization observer readout
Local Sidereal Time
00:28:31
Azimuth
Unknown
Elevation
Unknown
Doppler factor
Unknown
Orbital elements
Apogee altitude
358.1 km
Perigee altitude
351.541 km
Semi-major axis
6,732.958 km
Eccentricity
0.00049
Inclination
97.5016°
RAAN
290.0658°
Arg. of periapsis
215.4999°
True anomaly
144.62632°
Mean anomaly
144.594°
Eccentric anomaly
144.61016°
Mean motion
3.92857 °/min
Orbital period
91.64 mins
BSTAR
0.0010398
Loading maneuver chart data...
Computing Atmospheric mass density...
Loading historical data...
Loading historical data...
Loading historical data...
Loading historical data...
Loading historical data...
Loading historical data...
Loading historical data...

Documentation

Showing up to 5 results
|